Flag for Canada Weather past 2 weeks in Longueuil, Quebec, Canada

Now
49 °F

Cool.


Feels Like: 49 °F
Forecast: 45 / 53 °F
Wind: 2 mph from Southeast

Location: Mc Tavish

Current Time: Apr 21, 2015 at 3:40:06 AM

Latest Report: Apr 21, 2015 at 3:00 AM


Visibility: N/A

Pressure: 29.58 "Hg

Humidity: 82%

Dew point: 44 °F

Location of LongueuilLocation

Historic Weather in Longueuil — Graph

°F

Longueuil temperature yesterday

Maximum temperature yesterday: 51 °F (at 11:00 PM)
Minimum temperature yesterday: 42 °F (at 12:00 PM)
Average temperature yesterday: 47 °F

Past Weeks' High & Low Weather Summary

 TemperatureHumidityPressure
High71 °F (Apr 13, 4:00 PM)98% (Apr 6, 8:00 PM)30.49 "Hg (Apr 6, 8:00 PM)
Low26 °F (Apr 6, 2:00 AM)11% (Apr 15, 5:00 PM)29.43 "Hg (Apr 10, 6:00 PM)
Average45 °F52%30.09 "Hg
* Reported Apr 6 2:00 AM — Apr 21 2:00 AM, Longueuil, Weather by CustomWeather, © 2015

Note: Actual official high and low records may vary slightly from our data, if they occured in-between our weather recording intervals... More about our weather records

Advertising

Longueuil weather history for previous 24 hours

 ConditionsComfort  
Time TempWeatherWind HumidityBarometerVisibility
2:00 AM
Tue, Apr 21
50 °FCool.1 mph80%29.59 "HgN/A
1:00 AM50 °FCool.2 mph81%29.61 "HgN/A
12:00 AM51 °FCool.2 mph73%29.63 "HgN/A
11:00 PM
Mon, Apr 20
51 °FCool.1 mph72%29.66 "HgN/A
10:00 PM49 °FCool.2 mph76%29.68 "HgN/A
9:00 PM50 °FCool.1 mph71%29.69 "HgN/A
8:00 PM49 °FCool.6 mph75%29.70 "HgN/A
7:00 PM50 °FCool.2 mph71%29.72 "HgN/A
6:00 PM50 °FCool.3 mph71%29.74 "HgN/A
5:00 PM48 °FCool.2 mph69%29.77 "HgN/A
4:00 PM47 °FCool.2 mph77%29.78 "HgN/A
3:00 PM46 °FCool.3 mph78%29.81 "HgN/A
2:00 PM44 °FQuite cool.3 mph83%29.83 "HgN/A
1:00 PM43 °FQuite cool.5 mph86%29.85 "HgN/A
12:00 PM42 °FQuite cool.6 mph88%29.90 "HgN/A
11:00 AM44 °FQuite cool.7 mph76%29.92 "HgN/A
10:00 AM48 °FCool.3 mph59%29.94 "HgN/A
9:00 AM51 °FCool.3 mph49%29.95 "HgN/A
8:00 AM49 °FCool.5 mph50%29.97 "HgN/A
7:00 AM48 °FCool.2 mph52%29.99 "HgN/A
6:00 AM46 °FCool.5 mph46%30.00 "HgN/A
5:00 AM45 °FQuite cool.2 mph43%30.00 "HgN/A
4:00 AM44 °FQuite cool.1 mph44%30.03 "HgN/A
3:00 AM44 °FQuite cool.2 mph42%30.04 "HgN/A
Weather by CustomWeather, © 2015

See weather overviewHow to use our weather pages